FW0790 Weather Reports


time (UTC)temp
C
wind
direction
speed
KPH
gust
KPH
rain 1hr
cm
rain 24hr
cm
rain mn
cm
humidity
%
barometer
mb
20260506111505 15 263 0.0 0.0 0.00 0.00 0.00 74 1002.4
20260506110005 15 194 0.0 0.0 0.00 0.00 0.00 71 1002.3
20260506104502 15 207 0.0 0.0 0.00 0.00 0.00 75 1002.3
20260506103002 15 192 0.0 0.0 0.00 0.00 0.00 77 1002.4
20260506101500 15 194 0.0 0.0 0.00 0.00 0.00 75 1002.4
20260506100114 14 170 0.0 0.0 0.00 0.00 0.00 78 1002.5
20260506094557 14 222 0.0 0.0 0.00 0.00 0.00 78 1002.4
20260506093058 15 193 0.0 0.0 0.00 0.00 0.00 80 1002.2
20260506091557 14 225 0.0 0.0 0.00 0.00 0.00 81 1002.1
20260506090053 14 205 0.0 0.0 0.00 0.00 0.00 83 1002.1
20260506084548 13 171 0.0 0.0 0.00 0.00 0.00 85 1002.1
20260506083046 13 196 0.0 0.0 0.00 0.00 0.00 87 1002.0
20260506081545 12 204 0.0 0.0 0.00 0.00 0.00 87 1002.0
20260506073040 12 245 0.0 0.0 0.00 0.00 0.00 87 1001.9
20260506071536 12 196 0.0 0.0 0.00 0.00 0.00 86 1002.0
20260506061532 11 196 0.0 0.0 0.00 0.00 0.00 86 1001.8
20260506044530 11 209 0.0 0.0 0.00 0.00 0.00 82 1001.8
20260506043022 11 205 0.0 0.0 0.00 0.00 0.00 82 1001.9
20260506041519 11 193 0.0 0.0 0.00 0.00 0.00 82 1001.8
20260506040019 11 193 0.0 0.0 0.00 0.00 0.00 82 1001.7
20260506034519 11 232 0.0 0.0 0.00 0.00 0.00 82 1001.7
20260506033021 11 244 0.0 0.0 0.00 0.00 0.00 82 1001.8
20260506031528 11 201 0.0 0.0 0.00 0.00 0.00 83 1001.7
20260506030040 11 189 0.0 0.0 0.00 0.00 0.00 82 1001.8
20260506024524 11 290 0.0 0.0 0.00 0.00 0.00 82 1001.8
20260506023014 11 208 0.0 0.0 0.00 0.00 0.00 82 1001.9
20260506021513 11 177 0.0 0.0 0.00 0.00 0.00 82 1002.0
20260506020012 11 165 0.0 0.0 0.00 0.00 0.00 82 1002.1
20260506014511 11 184 0.0 0.0 0.00 0.00 0.00 82 1002.1
20260506013009 11 184 0.0 0.0 0.00 0.00 0.00 82 1002.3
20260506011508 11 220 0.0 0.0 0.00 0.00 0.00 82 1002.3
20260506010007 11 188 0.0 0.0 0.00 0.00 0.00 82 1002.5
20260506004512 11 161 0.0 0.0 0.00 0.00 0.00 83 1002.6
20260506003004 11 189 0.0 0.0 0.00 0.00 0.00 83 1002.6
20260506001502 11 183 0.0 0.0 0.00 0.00 0.00 83 1002.7
20260506000107 11 182 0.0 0.0 0.00 0.00 0.00 84 1002.8
20260505234601 11 182 0.0 0.0 0.00 0.00 0.00 84 1002.9
20260505233120 11 183 0.0 0.0 0.00 0.00 0.00 84 1003.2
20260505231556 11 183 0.0 0.0 0.00 0.00 0.00 84 1003.2
20260505230055 11 183 0.0 0.0 0.00 0.00 0.00 84 1003.4
20260505224553 11 183 0.0 0.0 0.00 0.00 0.00 84 1003.5
20260505223052 11 183 0.0 0.0 0.00 0.00 0.00 84 1003.5
20260505221600 11 183 0.0 0.0 0.00 0.00 0.00 84 1003.6
20260505220050 11 183 0.0 0.0 0.00 0.00 0.00 84 1003.7
20260505214548 11 183 0.0 0.0 0.00 0.00 0.00 85 1003.8
20260505213049 11 183 0.0 0.0 0.00 0.00 0.00 85 1003.9
20260505211547 11 183 0.0 0.0 0.00 0.00 0.00 85 1003.8
20260505210048 11 183 0.0 0.0 0.00 0.00 0.00 85 1003.9
20260505204545 11 183 0.0 0.0 0.00 0.00 0.00 85 1004.1
20260505203050 11 183 0.0 0.0 0.00 0.00 0.00 85 1004.1
20260505201547 11 183 0.0 0.0 0.00 0.00 0.00 86 1004.2
20260505200045 11 184 0.0 0.0 0.00 0.00 0.00 86 1004.2
20260505194549 12 184 0.0 0.0 0.00 0.00 0.00 86 1004.1
20260505193102 12 184 0.0 0.0 0.00 0.00 0.00 86 1004.1
20260505191543 12 184 0.0 0.0 0.00 0.00 0.00 86 1004.0
20260505190046 12 227 0.0 0.0 0.00 0.00 0.00 85 1003.9
20260505184542 12 218 0.0 0.0 0.00 0.00 0.00 85 1003.9
20260505183043 12 218 0.0 0.0 0.00 0.00 0.00 85 1003.9
20260505181541 12 218 0.0 0.0 0.00 0.00 0.00 85 1003.9
20260505180044 12 218 0.0 0.0 0.00 0.00 0.00 85 1003.9
20260505174540 12 219 0.0 0.0 0.00 0.00 0.00 86 1003.9
20260505173039 12 209 0.0 0.0 0.00 0.00 0.00 86 1004.0
20260505171546 12 244 0.0 0.0 0.00 0.00 0.00 85 1004.0
20260505170040 13 236 0.0 0.0 0.00 0.00 0.00 86 1003.9
20260505164541 13 214 0.0 0.0 0.00 0.00 0.00 86 1004.0
20260505163041 13 211 0.0 0.0 0.00 0.00 0.00 86 1004.1
20260505161537 13 178 0.0 0.0 0.00 0.00 0.00 86 1004.1
20260505153044 14 115 0.0 0.0 0.00 0.00 0.00 84 1004.0
20260505151537 15 168 0.0 0.0 0.00 0.00 0.00 79 1004.0
20260505124523 21 309 0.0 0.0 0.00 0.00 0.00 61 1004.3
20260505123020 21 360 0.0 0.0 0.00 0.00 0.00 63 1004.5
20260505121517 20 321 0.0 0.0 0.00 0.00 0.00 67 1004.7
20260505120032 20 307 0.0 0.0 0.00 0.00 0.00 64 1004.9
20260505114514 19 184 0.0 0.0 0.00 0.00 0.00 58 1005.0
20260505113014 20 215 0.0 0.0 0.00 0.00 0.00 59 1005.0